Time,TemperatureF,DewpointF,PressureIn,WindDirection,WindDirectionDegrees,WindSpeedMPH,WindSpeedGustMPH,Humidity,HourlyPrecipIn,Conditions,Clouds,dailyrainin,SoftwareType,DateUTC
2013-02-05 00:02:00,18.0,5.0,29.89,WSW,239,2.0,-999.0,55,-99.99,,,-99.99,,2013-02-05 05:02:00,
2013-02-05 00:12:00,18.0,5.0,29.89,WSW,239,2.0,-999.0,55,-99.99,,,-99.99,,2013-02-05 05:12:00,
2013-02-05 00:22:00,18.0,5.0,29.90,SW,228,4.0,-999.0,56,-99.99,,,-99.99,,2013-02-05 05:22:00,
2013-02-05 00:32:00,18.0,5.0,29.90,West,259,2.0,-999.0,56,-99.99,,,-99.99,,2013-02-05 05:32:00,
2013-02-05 00:42:00,18.0,5.0,29.90,West,259,2.0,-999.0,56,-99.99,,,-99.99,,2013-02-05 05:42:00,
2013-02-05 00:52:00,18.0,5.0,29.91,SSE,167,2.0,-999.0,57,-99.99,,,-99.99,,2013-02-05 05:52:00,
2013-02-05 01:02:00,18.0,5.0,29.91,WSW,250,2.0,-999.0,57,-99.99,,,-99.99,,2013-02-05 06:02:00,
2013-02-05 01:11:00,18.0,5.0,29.91,WSW,250,2.0,-999.0,57,-99.99,,,-99.99,,2013-02-05 06:11:00,
2013-02-05 01:21:00,18.0,6.0,29.91,WSW,255,1.0,-999.0,58,-99.99,,,-99.99,,2013-02-05 06:21:00,
2013-02-05 01:32:00,18.0,6.0,29.91,WSW,248,1.0,-999.0,58,-99.99,,,-99.99,,2013-02-05 06:32:00,
2013-02-05 01:42:00,18.0,6.0,29.91,WSW,248,1.0,-999.0,58,-99.99,,,-99.99,,2013-02-05 06:42:00,
2013-02-05 01:52:00,18.0,6.0,29.91,West,278,1.0,-999.0,58,-99.99,,,-99.99,,2013-02-05 06:52:00,
2013-02-05 02:01:00,18.0,6.0,29.92,WSW,240,1.0,-999.0,59,-99.99,,,-99.99,,2013-02-05 07:01:00,
2013-02-05 02:11:00,18.0,6.0,29.92,WSW,240,1.0,-999.0,59,-99.99,,,-99.99,,2013-02-05 07:11:00,
2013-02-05 02:22:00,18.0,6.0,29.92,WSW,240,1.0,-999.0,59,-99.99,,,-99.99,,2013-02-05 07:22:00,
2013-02-05 02:32:00,18.0,6.0,29.92,West,267,1.0,-999.0,60,-99.99,,,-99.99,,2013-02-05 07:32:00,
2013-02-05 02:42:00,18.0,6.0,29.92,West,267,1.0,-999.0,60,-99.99,,,-99.99,,2013-02-05 07:42:00,
2013-02-05 02:52:00,18.0,6.0,29.92,WSW,245,1.0,-999.0,60,-99.99,,,-99.99,,2013-02-05 07:52:00,
2013-02-05 03:01:00,18.0,7.0,29.91,WSW,242,0.0,-999.0,61,-99.99,,,-99.99,,2013-02-05 08:01:00,
2013-02-05 03:11:00,18.0,7.0,29.91,WSW,242,0.0,-999.0,61,-99.99,,,-99.99,,2013-02-05 08:11:00,
2013-02-05 03:21:00,18.0,7.0,29.92,WSW,240,0.0,-999.0,61,-99.99,,,-99.99,,2013-02-05 08:21:00,
2013-02-05 03:31:00,18.0,7.0,29.92,WSW,241,0.0,-999.0,61,-99.99,,,-99.99,,2013-02-05 08:31:00,
2013-02-05 03:42:00,18.0,7.0,29.92,WSW,241,0.0,-999.0,61,-99.99,,,-99.99,,2013-02-05 08:42:00,
2013-02-05 03:52:00,18.0,7.0,29.92,WNW,285,0.0,-999.0,62,-99.99,,,-99.99,,2013-02-05 08:52:00,
2013-02-05 04:02:00,18.0,7.0,29.92,WNW,284,0.0,-999.0,62,-99.99,,,-99.99,,2013-02-05 09:02:00,
2013-02-05 04:11:00,18.0,7.0,29.92,WNW,284,0.0,-999.0,62,-99.99,,,-99.99,,2013-02-05 09:11:00,
2013-02-05 04:22:00,18.0,7.0,29.92,WNW,284,0.0,-999.0,62,-99.99,,,-99.99,,2013-02-05 09:22:00,
2013-02-05 04:32:00,18.0,7.0,29.92,WNW,283,0.0,-999.0,62,-99.99,,,-99.99,,2013-02-05 09:32:00,
2013-02-05 04:42:00,18.0,7.0,29.92,WNW,283,0.0,-999.0,62,-99.99,,,-99.99,,2013-02-05 09:42:00,
2013-02-05 04:52:00,18.0,7.0,29.93,WNW,283,0.0,-999.0,62,-99.99,,,-99.99,,2013-02-05 09:52:00,
2013-02-05 05:02:00,18.0,8.0,29.93,WNW,283,0.0,-999.0,63,-99.99,,,-99.99,,2013-02-05 10:02:00,
2013-02-05 05:11:00,18.0,8.0,29.93,WNW,283,0.0,-999.0,63,-99.99,,,-99.99,,2013-02-05 10:11:00,
2013-02-05 05:21:00,18.0,8.0,29.93,WNW,283,0.0,-999.0,63,-99.99,,,-99.99,,2013-02-05 10:21:00,
2013-02-05 05:32:00,18.0,8.0,29.92,WNW,283,0.0,-999.0,63,-99.99,,,-99.99,,2013-02-05 10:32:00,
2013-02-05 05:42:00,18.0,8.0,29.92,WNW,283,0.0,-999.0,63,-99.99,,,-99.99,,2013-02-05 10:42:00,
2013-02-05 05:52:00,18.0,8.0,29.93,SW,225,0.0,-999.0,63,-99.99,,,-99.99,,2013-02-05 10:52:00,
2013-02-05 06:01:00,18.0,8.0,29.93,SW,225,0.0,-999.0,65,-99.99,,,-99.99,,2013-02-05 11:01:00,
2013-02-05 06:11:00,18.0,8.0,29.93,SW,225,0.0,-999.0,65,-99.99,,,-99.99,,2013-02-05 11:11:00,
2013-02-05 06:22:00,18.0,8.0,29.93,SW,225,0.0,-999.0,65,-99.99,,,-99.99,,2013-02-05 11:22:00,
2013-02-05 06:32:00,18.0,8.0,29.94,SW,225,0.0,-999.0,65,-99.99,,,-99.99,,2013-02-05 11:32:00,
2013-02-05 06:42:00,18.0,8.0,29.94,SW,225,0.0,-999.0,65,-99.99,,,-99.99,,2013-02-05 11:42:00,
2013-02-05 06:52:00,18.0,8.0,29.94,SW,227,0.0,-999.0,64,-99.99,,,-99.99,,2013-02-05 11:52:00,
2013-02-05 07:02:00,18.0,8.0,29.94,SW,227,0.0,-999.0,65,-99.99,,,-99.99,,2013-02-05 12:02:00,
2013-02-05 07:12:00,18.0,8.0,29.94,SW,227,0.0,-999.0,65,-99.99,,,-99.99,,2013-02-05 12:12:00,
2013-02-05 07:22:00,18.0,9.0,29.95,SW,228,0.0,-999.0,66,-99.99,,,-99.99,,2013-02-05 12:22:00,
2013-02-05 07:32:00,19.0,10.0,29.95,SW,229,0.0,-999.0,66,-99.99,,,-99.99,,2013-02-05 12:32:00,
2013-02-05 07:42:00,19.0,10.0,29.95,SW,229,0.0,-999.0,66,-99.99,,,-99.99,,2013-02-05 12:42:00,
2013-02-05 07:52:00,19.0,9.0,29.96,SW,229,0.0,-999.0,65,-99.99,,,-99.99,,2013-02-05 12:52:00,
2013-02-05 08:02:00,19.0,9.0,29.97,SW,229,0.0,-999.0,65,-99.99,,,-99.99,,2013-02-05 13:02:00,
2013-02-05 08:12:00,19.0,9.0,29.97,SW,229,0.0,-999.0,65,-99.99,,,-99.99,,2013-02-05 13:12:00,
2013-02-05 08:22:00,20.0,10.0,29.98,SW,230,0.0,-999.0,65,-99.99,,,-99.99,,2013-02-05 13:22:00,
2013-02-05 08:32:00,21.0,11.0,29.98,SW,235,0.0,-999.0,64,-99.99,,,-99.99,,2013-02-05 13:32:00,
2013-02-05 08:42:00,21.0,11.0,29.98,SW,235,0.0,-999.0,64,-99.99,,,-99.99,,2013-02-05 13:42:00,
2013-02-05 08:52:00,21.0,10.0,29.98,WSW,239,0.0,-999.0,63,-99.99,,,-99.99,,2013-02-05 13:52:00,
2013-02-05 09:01:00,22.0,10.0,29.98,West,259,0.0,-999.0,60,-99.99,,,-99.99,,2013-02-05 14:01:00,
2013-02-05 09:12:00,22.0,10.0,29.98,West,259,0.0,-999.0,60,-99.99,,,-99.99,,2013-02-05 14:12:00,
2013-02-05 09:21:00,23.0,10.0,29.98,West,264,0.0,-999.0,58,-99.99,,,-99.99,,2013-02-05 14:21:00,
2013-02-05 09:32:00,23.0,10.0,29.98,NW,325,0.0,-999.0,56,-99.99,,,-99.99,,2013-02-05 14:32:00,
2013-02-05 09:42:00,23.0,10.0,29.98,NW,325,0.0,-999.0,56,-99.99,,,-99.99,,2013-02-05 14:42:00,
2013-02-05 09:52:00,24.0,9.0,29.98,WNW,284,1.0,-999.0,52,-99.99,,,-99.99,,2013-02-05 14:52:00,
2013-02-05 10:02:00,24.0,9.0,29.98,NNE,12,1.0,-999.0,51,-99.99,,,-99.99,,2013-02-05 15:02:00,
2013-02-05 10:11:00,24.0,9.0,29.98,NNE,12,1.0,-999.0,51,-99.99,,,-99.99,,2013-02-05 15:11:00,
2013-02-05 10:21:00,25.0,10.0,29.99,WNW,286,1.0,-999.0,52,-99.99,,,-99.99,,2013-02-05 15:21:00,
2013-02-05 10:32:00,25.0,9.0,29.99,WSW,251,1.0,-999.0,51,-99.99,,,-99.99,,2013-02-05 15:32:00,
2013-02-05 10:42:00,25.0,9.0,29.99,WSW,251,1.0,-999.0,51,-99.99,,,-99.99,,2013-02-05 15:42:00,
2013-02-05 10:52:00,25.0,9.0,29.99,WNW,284,2.0,-999.0,50,-99.99,,,-99.99,,2013-02-05 15:52:00,
2013-02-05 11:01:00,25.0,9.0,29.98,West,271,0.0,-999.0,50,-99.99,,,-99.99,,2013-02-05 16:01:00,
2013-02-05 11:12:00,25.0,9.0,29.98,West,271,0.0,-999.0,50,-99.99,,,-99.99,,2013-02-05 16:12:00,
2013-02-05 11:22:00,26.0,10.0,29.98,West,263,1.0,-999.0,50,-99.99,,,-99.99,,2013-02-05 16:22:00,
2013-02-05 11:32:00,26.0,9.0,29.98,West,269,1.0,-999.0,49,-99.99,,,-99.99,,2013-02-05 16:32:00,
2013-02-05 11:42:00,26.0,9.0,29.98,West,269,1.0,-999.0,49,-99.99,,,-99.99,,2013-02-05 16:42:00,
2013-02-05 11:52:00,26.0,9.0,29.97,WNW,303,1.0,-999.0,49,-99.99,,,-99.99,,2013-02-05 16:52:00,
2013-02-05 12:01:00,27.0,11.0,29.96,WSW,242,0.0,-999.0,50,-99.99,,,-99.99,,2013-02-05 17:01:00,
2013-02-05 12:12:00,27.0,11.0,29.96,WSW,242,0.0,-999.0,50,-99.99,,,-99.99,,2013-02-05 17:12:00,
2013-02-05 12:22:00,29.0,12.0,29.96,SW,225,0.0,-999.0,48,-99.99,,,-99.99,,2013-02-05 17:22:00,
2013-02-05 12:32:00,29.0,11.0,29.95,WSW,239,1.0,-999.0,46,-99.99,,,-99.99,,2013-02-05 17:32:00,
2013-02-05 12:42:00,29.0,11.0,29.95,WSW,239,1.0,-999.0,46,-99.99,,,-99.99,,2013-02-05 17:42:00,
2013-02-05 12:52:00,29.0,12.0,29.95,WSW,254,1.0,-999.0,48,-99.99,,,-99.99,,2013-02-05 17:52:00,
2013-02-05 13:02:00,29.0,11.0,29.95,WSW,244,0.0,-999.0,47,-99.99,,,-99.99,,2013-02-05 18:02:00,
2013-02-05 13:11:00,29.0,11.0,29.95,WSW,244,0.0,-999.0,47,-99.99,,,-99.99,,2013-02-05 18:11:00,
2013-02-05 13:22:00,29.0,11.0,29.93,WSW,242,1.0,-999.0,47,-99.99,,,-99.99,,2013-02-05 18:22:00,
2013-02-05 13:32:00,29.0,11.0,29.93,SW,236,0.0,-999.0,47,-99.99,,,-99.99,,2013-02-05 18:32:00,
2013-02-05 13:42:00,29.0,11.0,29.93,SW,236,0.0,-999.0,47,-99.99,,,-99.99,,2013-02-05 18:42:00,
2013-02-05 13:52:00,29.0,11.0,29.93,WSW,243,0.0,-999.0,47,-99.99,,,-99.99,,2013-02-05 18:52:00,
2013-02-05 14:02:00,29.0,11.0,29.93,WSW,243,0.0,-999.0,47,-99.99,,,-99.99,,2013-02-05 19:02:00,
2013-02-05 14:11:00,29.0,11.0,29.93,WSW,243,0.0,-999.0,47,-99.99,,,-99.99,,2013-02-05 19:11:00,
2013-02-05 14:22:00,28.0,11.0,29.93,SE,144,3.0,-999.0,49,-99.99,,,-99.99,,2013-02-05 19:22:00,
2013-02-05 14:32:00,28.0,12.0,29.93,SSE,159,1.0,-999.0,50,-99.99,,,-99.99,,2013-02-05 19:32:00,
2013-02-05 14:42:00,28.0,12.0,29.93,SSE,159,1.0,-999.0,50,-99.99,,,-99.99,,2013-02-05 19:42:00,
2013-02-05 14:52:00,29.0,12.0,29.93,SE,146,1.0,-999.0,48,-99.99,,,-99.99,,2013-02-05 19:52:00,
2013-02-05 15:02:00,29.0,13.0,29.93,WSW,238,1.0,-999.0,50,-99.99,,,-99.99,,2013-02-05 20:02:00,
2013-02-05 15:11:00,29.0,13.0,29.93,WSW,238,1.0,-999.0,50,-99.99,,,-99.99,,2013-02-05 20:11:00,
2013-02-05 15:21:00,29.0,12.0,29.92,South,174,3.0,-999.0,49,-99.99,,,-99.99,,2013-02-05 20:21:00,
2013-02-05 15:32:00,29.0,12.0,29.92,SE,140,3.0,-999.0,49,-99.99,,,-99.99,,2013-02-05 20:32:00,
2013-02-05 15:42:00,29.0,12.0,29.92,SE,140,3.0,-999.0,49,-99.99,,,-99.99,,2013-02-05 20:42:00,
2013-02-05 15:52:00,28.0,12.0,29.91,SE,146,4.0,-999.0,50,-99.99,,,-99.99,,2013-02-05 20:52:00,
2013-02-05 16:02:00,28.0,12.0,29.91,East,95,2.0,-999.0,51,-99.99,,,-99.99,,2013-02-05 21:02:00,
2013-02-05 16:11:00,28.0,12.0,29.91,East,95,2.0,-999.0,51,-99.99,,,-99.99,,2013-02-05 21:11:00,
2013-02-05 16:22:00,28.0,12.0,29.91,East,95,2.0,-999.0,51,-99.99,,,-99.99,,2013-02-05 21:22:00,
2013-02-05 16:32:00,28.0,12.0,29.91,SSE,148,1.0,-999.0,51,-99.99,,,-99.99,,2013-02-05 21:32:00,
2013-02-05 16:42:00,28.0,12.0,29.91,SSE,148,1.0,-999.0,51,-99.99,,,-99.99,,2013-02-05 21:42:00,
2013-02-05 16:52:00,27.0,12.0,29.91,SSE,147,0.0,-999.0,53,-99.99,,,-99.99,,2013-02-05 21:52:00,
2013-02-05 17:02:00,27.0,13.0,29.91,SE,131,0.0,-999.0,54,-99.99,,,-99.99,,2013-02-05 22:02:00,
2013-02-05 17:11:00,27.0,13.0,29.91,SE,131,0.0,-999.0,54,-99.99,,,-99.99,,2013-02-05 22:11:00,
2013-02-05 17:22:00,27.0,13.0,29.92,SE,140,1.0,-999.0,54,-99.99,,,-99.99,,2013-02-05 22:22:00,
2013-02-05 17:32:00,27.0,13.0,29.92,SE,140,1.0,-999.0,54,-99.99,,,-99.99,,2013-02-05 22:32:00,
2013-02-05 17:42:00,27.0,13.0,29.92,SE,140,1.0,-999.0,54,-99.99,,,-99.99,,2013-02-05 22:42:00,
2013-02-05 17:52:00,25.0,12.0,29.91,SE,140,0.0,-999.0,58,-99.99,,,-99.99,,2013-02-05 22:52:00,
2013-02-05 18:02:00,25.0,12.0,29.91,SE,140,0.0,-999.0,58,-99.99,,,-99.99,,2013-02-05 23:02:00,
2013-02-05 18:11:00,25.0,12.0,29.91,SE,140,0.0,-999.0,58,-99.99,,,-99.99,,2013-02-05 23:11:00,
2013-02-05 18:22:00,24.0,13.0,29.92,SSE,160,0.0,-999.0,61,-99.99,,,-99.99,,2013-02-05 23:22:00,
2013-02-05 18:32:00,24.0,13.0,29.92,SSE,155,0.0,-999.0,62,-99.99,,,-99.99,,2013-02-05 23:32:00,
2013-02-05 18:42:00,24.0,13.0,29.92,SSE,155,0.0,-999.0,62,-99.99,,,-99.99,,2013-02-05 23:42:00,
2013-02-05 18:53:00,24.0,13.0,29.92,SSE,155,0.0,-999.0,63,-99.99,,,-99.99,,2013-02-05 23:53:00,
2013-02-05 19:02:00,24.0,14.0,29.92,SSE,155,0.0,-999.0,64,-99.99,,,-99.99,,2013-02-06 00:02:00,
2013-02-05 19:12:00,24.0,14.0,29.92,SSE,155,0.0,-999.0,64,-99.99,,,-99.99,,2013-02-06 00:12:00,
2013-02-05 19:22:00,24.0,14.0,29.92,SSE,155,0.0,-999.0,65,-99.99,,,-99.99,,2013-02-06 00:22:00,
2013-02-05 19:32:00,24.0,14.0,29.92,SE,128,1.0,-999.0,66,-99.99,,,-99.99,,2013-02-06 00:32:00,
2013-02-05 19:42:00,24.0,14.0,29.92,SE,128,1.0,-999.0,66,-99.99,,,-99.99,,2013-02-06 00:42:00,
2013-02-05 19:52:00,24.0,14.0,29.92,SE,134,1.0,-999.0,66,-99.99,,,-99.99,,2013-02-06 00:52:00,
2013-02-05 20:02:00,24.0,14.0,29.92,SE,134,0.0,-999.0,66,-99.99,,,-99.99,,2013-02-06 01:02:00,
2013-02-05 20:12:00,24.0,14.0,29.92,SE,134,0.0,-999.0,66,-99.99,,,-99.99,,2013-02-06 01:12:00,
2013-02-05 20:22:00,24.0,15.0,29.92,SE,136,0.0,-999.0,67,-99.99,,,-99.99,,2013-02-06 01:22:00,
2013-02-05 20:32:00,24.0,15.0,29.93,SE,137,0.0,-999.0,67,-99.99,,,-99.99,,2013-02-06 01:32:00,
2013-02-05 20:42:00,24.0,15.0,29.93,SE,137,0.0,-999.0,67,-99.99,,,-99.99,,2013-02-06 01:42:00,
2013-02-05 20:53:00,24.0,16.0,29.93,SE,143,1.0,-999.0,71,-99.99,,,-99.99,,2013-02-06 01:53:00,
2013-02-05 21:02:00,24.0,17.0,29.93,South,170,1.0,-999.0,74,-99.99,,,-99.99,,2013-02-06 02:02:00,
2013-02-05 21:11:00,24.0,17.0,29.93,South,170,1.0,-999.0,74,-99.99,,,-99.99,,2013-02-06 02:11:00,
2013-02-05 21:22:00,23.0,17.0,29.93,South,170,0.0,-999.0,77,-99.99,,,-99.99,,2013-02-06 02:22:00,
2013-02-05 21:32:00,23.0,17.0,29.93,South,170,0.0,-999.0,79,-99.99,,,-99.99,,2013-02-06 02:32:00,
2013-02-05 21:42:00,23.0,17.0,29.93,South,170,0.0,-999.0,79,-99.99,,,-99.99,,2013-02-06 02:42:00,
2013-02-05 21:53:00,23.0,18.0,29.93,South,170,0.0,-999.0,80,-99.99,,,-99.99,,2013-02-06 02:53:00,
2013-02-05 22:03:00,23.0,18.0,29.93,South,170,0.0,-999.0,81,-99.99,,,-99.99,,2013-02-06 03:03:00,
2013-02-05 22:12:00,23.0,18.0,29.93,South,170,0.0,-999.0,81,-99.99,,,-99.99,,2013-02-06 03:12:00,
2013-02-05 22:22:00,23.0,18.0,29.92,South,170,0.0,-999.0,82,-99.99,,,-99.99,,2013-02-06 03:22:00,
2013-02-05 22:32:00,23.0,18.0,29.91,South,170,0.0,-999.0,82,-99.99,,,-99.99,,2013-02-06 03:32:00,
2013-02-05 22:42:00,23.0,18.0,29.91,South,170,0.0,-999.0,82,-99.99,,,-99.99,,2013-02-06 03:42:00,
2013-02-05 22:53:00,23.0,19.0,29.91,South,170,0.0,-999.0,83,-99.99,,,-99.99,,2013-02-06 03:53:00,
2013-02-05 23:02:00,23.0,19.0,29.91,South,170,0.0,-999.0,83,-99.99,,,-99.99,,2013-02-06 04:02:00,
2013-02-05 23:11:00,23.0,19.0,29.91,South,170,0.0,-999.0,83,-99.99,,,-99.99,,2013-02-06 04:11:00,
2013-02-05 23:22:00,23.0,19.0,29.91,South,170,0.0,-999.0,84,-99.99,,,-99.99,,2013-02-06 04:22:00,
2013-02-05 23:32:00,23.0,19.0,29.90,South,170,0.0,-999.0,85,-99.99,,,-99.99,,2013-02-06 04:32:00,
2013-02-05 23:42:00,23.0,19.0,29.90,South,170,0.0,-999.0,85,-99.99,,,-99.99,,2013-02-06 04:42:00,
2013-02-05 23:52:00,23.0,19.0,29.91,South,170,0.0,-999.0,85,-99.99,,,-99.99,,2013-02-06 04:52:00,